Вернуться в каталог

STARLINK-31445

АктивенСвязьVLEO
NORAD 59312·PAYLOAD·🇺🇸 United States

Запущен Mar 24, 2024 с Cape Canaveral Space Force Station

Loading…

Ближайшие Пролёты (ближайшие 24 часа)

TLE

СвежийSource: CelesTrak SupGP

Эпоха: Sep 15, 2026, 03:15 UTC

1 59312C 24056S   26258.13590278 -.00029440  00000+0 -10664-2 0  2582
2 59312  42.9994 247.9070 0001334 268.6656 165.9203 15.27589439    18

Отслеживайте STARLINK-31445 в реальном времени с AllMySat

Download on the App Store